User: anonymous   Login
Location: ?
(35.4214°N, 139.3011°E)
Time: 11:25:16
(UTC+00:00)
Language:

TIMED - Orbit

View from above orbital plane
View from above orbital plane
View from above satellite
View from above satellite

Ground track
Ground track

The orbit data is extracted from the following two-line orbital elements,

1 26998U 01055B   20271.84611275 +.00000140 +00000-0 +19263-4 0  9991
2 26998 074.0707 089.3591 0000883 207.8057 152.3077 14.88216668019694
Epoch (UTC): 27 September 2020 20:18:24
Eccentricity: 0.0000883
inclination: 74.0707°
perigee height: 603 km
apogee height: 604 km
right ascension of ascending node: 89.3591°
argument of perigee: 207.8057°
revolutions per day: 14.88216668
mean anomaly at epoch: 152.3077°
orbit number at epoch: 1969

The dashed part of the orbit path shows where the satellite is in the earth's shadow,  

DLR